Location: Unspecified
(0.0000°N, 0.0000°E)
Time: 20:53:33
(UTC+00:00)

FENGYUN 1C DEB - Pass Details

Date: 18 February 2026
Orbit: 775 x 802 km, 98.9° (Epoch: 9 April)

Event Time Altitude Azimuth Distance (km) Brightness Sun altitude
Rises 03:58:04 0° 157° (SSE) 3,200 ? -33.2°
Reaches altitude 10° 04:00:25 10° 151° (SSE) 2,277 ? -32.6°
Enters shadow 04:05:11 49° 80° (E) 975 ? -31.5°
